Portland Troutdale, OR

6:36 PM PDT on May 20, 2018 (GMT -0700)
Portland-Troutdale

Weather History for KTTD - March, 2013

Change the Weather History Date:

Saturday, March 30, 2013

  Actual Average Record
Temperature  
Mean Temperature 57 °F 50 °F  
Max Temperature 74 °F 59 °F 75 °F (2003)
Min Temperature 40 °F 40 °F 28 °F (1968)
Degree Days  
Heating Degree Days 8 15  
Month to date heating degree days 496 530  
Cooling Degree Days 0 0  
Month to date cooling degree days 0 0  
Growing Degree Days 8 (Base 50)    
Moisture  
Dew Point 44 °F    
Average Humidity 67    
Maximum Humidity 96    
Minimum Humidity 38    
Precipitation  
Precipitation 0.00 in 0.14 in 1.17 in (1983)
Month to date precipitation 1.75 4.49  
Year to date precipitation 6.50 15.76  
Snow  
Snow 0.00 in - - ()
Month to date snowfall 0.0  
Snow Depth 0.00 in    
Sea Level Pressure  
Sea Level Pressure 30.08 in    
Wind  
Wind Speed 8 mph (East)    
Max Wind Speed 20 mph    
Max Gust Speed 24 mph    
Visibility 10 miles    
Events      
T = Trace of Precipitation, MM = Missing Value Source: NWS Daily Summary

Daily Weather History Graph

Daily Weather History Graph

Search for Another Location

Airport or City:

Astronomy

Mar. 30, 2013 Rise Set
Actual Time 6:52 AM PDT 7:35 PM PDT
Civil Twilight 6:23 AM PDT 8:05 PM PDT
Nautical Twilight 5:47 AM PDT 8:41 PM PDT
Astronomical Twilight 5:10 AM PDT 9:18 PM PDT
Moon No Moon Rise 8:41 AM PDT (3/30)
Length of Visible Light 13h 42m
Length of Day
12h 42m
Waning Gibbous, 85% of the Moon is Illuminated
Mar 30
Waning Gibbous
Apr 2
Last Quarter
Apr 10
New
Apr 18
First Quarter
Apr 25
Full

Hourly Weather History & Observations

Time (PDT) Temp. Dew Point Humidity Pressure Visibility Wind Dir Wind Speed Gust Speed Precip Events Conditions
12:53 AM 50.0 °F 45.0 °F 83% 30.19 in 10.0 mi ENE 3.5 mph - N/A   Clear
1:53 AM 48.0 °F 44.1 °F 86% 30.19 in 10.0 mi East 3.5 mph - N/A   Clear
2:53 AM 48.0 °F 44.1 °F 86% 30.19 in 10.0 mi Calm Calm - N/A   Clear
3:53 AM 46.0 °F 42.1 °F 86% 30.18 in 10.0 mi Calm Calm - N/A   Clear
4:53 AM 43.0 °F 39.9 °F 89% 30.17 in 10.0 mi Calm Calm - N/A   Clear
5:53 AM 43.0 °F 39.9 °F 89% 30.16 in 10.0 mi Calm Calm - N/A   Clear
6:53 AM 42.1 °F 39.0 °F 89% 30.17 in 10.0 mi Calm Calm - N/A   Clear
7:53 AM 43.0 °F 41.0 °F 93% 30.17 in 10.0 mi Calm Calm - N/A   Clear
8:53 AM 50.0 °F 45.0 °F 83% 30.16 in 10.0 mi Calm Calm - N/A   Clear
9:53 AM 54.0 °F 45.0 °F 72% 30.15 in 10.0 mi Variable 4.6 mph - N/A   Clear
10:53 AM 57.9 °F 45.0 °F 62% 30.13 in 10.0 mi Calm Calm - N/A   Clear
11:53 AM 63.0 °F 46.0 °F 54% 30.12 in 10.0 mi Variable 3.5 mph - N/A   Clear
12:53 PM 69.1 °F 46.9 °F 45% 30.10 in 10.0 mi East 8.1 mph - N/A   Clear
1:53 PM 71.1 °F 46.9 °F 42% 30.07 in 10.0 mi East 13.8 mph 21.9 mph N/A   Clear
2:53 PM 73.0 °F 46.9 °F 39% 30.04 in 10.0 mi East 17.3 mph - N/A   Clear
3:53 PM 73.9 °F 46.9 °F 38% 30.02 in 10.0 mi East 15.0 mph - N/A   Clear
4:53 PM 73.0 °F 46.9 °F 39% 30.00 in 10.0 mi East 16.1 mph - N/A   Clear
5:53 PM 73.0 °F 46.9 °F 39% 29.98 in 10.0 mi East 16.1 mph - N/A   Clear
6:53 PM 70.0 °F 46.9 °F 44% 29.97 in 10.0 mi East 12.7 mph - N/A   Clear
7:53 PM 66.9 °F 46.0 °F 47% 29.97 in 10.0 mi East 8.1 mph - N/A   Clear
8:53 PM 64.9 °F 45.0 °F 48% 29.97 in 10.0 mi East 11.5 mph - N/A   Clear
9:53 PM 63.0 °F 45.0 °F 52% 29.98 in 10.0 mi East 11.5 mph - N/A   Clear
10:53 PM 63.0 °F 44.1 °F 50% 29.98 in 10.0 mi East 12.7 mph 19.6 mph N/A   Clear
11:53 PM 62.1 °F 43.0 °F 50% 29.97 in 10.0 mi East 15.0 mph - N/A   Clear